User: anonymous   Login
Location: Innerarity Island Observatory
(30.3139°N, 87.4867°W)
Time: 10:05:08
(UTC-06:00)
Language:

FO-29 - Orbit

View from above orbital plane
View from above orbital plane
View from above satellite
View from above satellite

Ground track
Ground track

The orbit data is extracted from the following two-line orbital elements,

1 24278U 96046B   17348.58899565 -.00000054  00000-0 -16674-4 0  9995
2 24278 098.5335 207.5941 0349555 229.6853 127.3259 13.53080423053020
Epoch (UTC): 14 December 2017 14:08:09
Eccentricity: 0.0349555
inclination: 98.5335°
perigee height: 801 km
apogee height: 1321 km
right ascension of ascending node: 207.5941°
argument of perigee: 229.6853°
revolutions per day: 13.53080423
mean anomaly at epoch: 127.3259°
orbit number at epoch: 5302

The dashed part of the orbit path shows where the satellite is in the earth's shadow,  

DLR